Regional Weather Roundup
Issued by NWS Kansas City/Pleasant Hill, MO

Home | Current Version | Previous Version | Text Only | Print | Product List | Glossary On
Versions: 1 2 3 4 5 6 7 8 9 10 11 12 13 14 15 16 17 18 19 20 21 22 23 24 25 26 27 28 29 30 31 32 33 34 35 36 37 38 39 40 41 42 43 44 45 46 47 48 49 50
000
ASUS43 KEAX 202304
RWREAX

WEATHER ROUNDUP FOR EASTERN KANSAS AND NORTHWEST MISSOURI
NATIONAL WEATHER SERVICE KANSAS CITY/PLEASANT HILL MO
600 PM CDT WED AUG 20 2014

KSZ040-057-103>105-MOZ028-029-037-043-210000-
...KANSAS CITY METROPOLITAN AREA...

CITY           SKY/WX    TMP DP  RH WIND       PRES   REMARKS
K.C. INTL      MOSUNNY   91  73  55 S13       29.84S HX  99
K.C. DOWNTOWN  MOSUNNY   92  70  48 S10       29.82F HX  97
LEES SUMMIT    SUNNY     90  71  53 S12G22    29.86S HX  96
OLATHE - IXD   MOSUNNY   93  68  43 S13G28    29.85S HX  97
OLATHE - OJC   MOSUNNY   90  70  51 S12G21    29.84F HX  95
LAWRENCE       PTSUNNY   96  71  44 S10       29.81F HX 103

$$

MOZ001>008-011>017-020>025-030>033-038>040-044>046-053-054-210000-
...NORTHERN AND CENTRAL MISSOURI...

CITY           SKY/WX    TMP DP  RH WIND       PRES   REMARKS
ST. JOSEPH     PTSUNNY   91  75  59 SE9       29.82F HX 101
MOSBY          PTCLDY    88  73  62 SE7       29.84S HX  96
WHITEMAN AFB   MOSUNNY   89  70  52 S12       29.87S HX  95
CLINTON        MOSUNNY   88  73  62 S10       29.88F HX  96
SEDALIA        MOSUNNY   91  73  55 S10G18    29.89F HX  99
WARSAW         NOT AVBL
MARSHALL       SUNNY     91  75  59 S8        29.88F HX 102
CHILLICOTHE      N/A     89  73  59 S9        29.87F HX  97
MOBERLY        SUNNY     90  72  55 S3        29.91S HX  96
KIRKSVILLE     SUNNY     87  74  64 S9        29.90F HX  95

$$

MOZ041-047>049-056>058-063>065-088>090-097-210000-
...EASTERN AND SOUTHERN MISSOURI...

CITY           SKY/WX    TMP DP  RH WIND       PRES   REMARKS
ST. LOUIS INTL MOSUNNY   87  73  62 SE12      29.93F HX  94
SPIRIT OF STL  MOSUNNY   87  75  67 SE9       29.90S HX  96
COLUMBIA       MOSUNNY   89  72  56 S6        29.89F HX  96
JEFFERSON CITY PTSUNNY   88  72  58 S8        29.88S THUNDER HX  94
MEXICO         SUNNY     90  77  66 S3        29.90F HX 102
ROLLA          TSTM      75  69  81 N8        29.92R
OSAGE BEACH    PTSUNNY   84  66  54 S6        29.91F
SPRINGFIELD    PTSUNNY   92  62  36 SW21      29.94F HX  92
BRANSON        PTSUNNY   90  57  33 SW9       29.99S
NEVADA         SUNNY     91  68  46 S12G20    29.90S HX  95
JOPLIN         SUNNY     91  65  41 S18       29.91F HX  93
WEST PLAINS    MOSUNNY   92  65  40 SW9       29.97F HX  94

$$

IAZ060-094-KSZ022-034>040-054-083-096-NEZ052-066-093-210000-
...KANSAS...SOUTHEAST NEBRASKA AND IOWA...

CITY           SKY/WX    TMP DP  RH WIND       PRES   REMARKS
TOPEKA         SUNNY     95  69  42 S13G23    29.80S HX 100
MANHATTAN      SUNNY     95  68  41 S16G24    29.77S HX  99
EMPORIA        MOSUNNY   93  69  45 S20G26    29.82F HX  98
CHANUTE        SUNNY     93  62  35 S20       29.87S HX  93
WICHITA        MOSUNNY   94  66  39 S23G32    29.80S HX  97
OMAHA          PTSUNNY   88  74  63 SE21      29.78F HX  96
LINCOLN        SUNNY     93  68  43 S17G28    29.76S HX  97
FALLS CITY     MOSUNNY   93  72  50 SE10      29.79F HX 101
LAMONI         SUNNY     85  74  69 S12G18    29.87F HX  92
DES MOINES     PTSUNNY   82  73  74 S7        29.85F

$$



USA.gov is the U.S. government's official web portal to all federal, state and local government web resources and services.